Showing default

EXPLORER 27, 1328

Orbit data source: Space-Track

EXPLORER 27, 1328 is a payload satellite owned by GSFC (US) in LEO that was launched on Thu, 29 Apr 1965 UTC via an SCOUT X-4 launch vehicle from the Wallops Island (WLPIS). Payload-class satellites include a variety of spacecraft equipped with specific instruments for various scientific and technological missions. These include communications satellites like Starlink; space stations such as the ISS; scientific satellites like the Hubble; Earth observation satellites from companies like Planet Labs, Umbra, and HawkEye 360; GPS; miniature CubeSats for education and research; and military/defense satellites.

Loading next visibility...
Identifier
1328, 1965-032A
Orbit
LEO
Country
Flag of USUS
Related business
Manufacturer
APL
Mission
Spacecraft
Bus & Motor
TRANSIT 5, Unknown motor
Mass
55 kg wet, 55 kg dry
Launch date (UTC)
1965-04-29 (61 years ago)
Launch vehicle
SCOUT X-4
Launch site
Wallops Island (WLPIS)
Object type
Payload
Rocket body
Debris
Shape & HBR
OCT CYL + 4 PAN, 1.1 m
Radar Cross Section
Medium (>0.1 m² and <1 m²)

Expand to show TLE details & history
Last TLE update: 8 hours ago

TLE from 8 hours ago
0 EXPLORER 27
1 01328U 65032A   26264.58404590 -.00000128  00000-0 -65617-4 0  9997
2 01328  41.1846 324.8153 0239868  87.1814 275.6365 13.38934771  1260
Epoch: 2026-09-21T14:01Z
TLE epoch observation values (Epoch: 2026-09-21T14:01:01.565Z)
Latitude
0.00001°
Longitude
114.09701°
Altitude
1,099.494 km
Speed
7.311 km/s
True Right ascension
21h 39m 15s
True Declination
0° 00' 00"
Sunlit
Object was in full shadow at epoch
Visualization orbit readout
Latitude
Unknown
Longitude
Unknown
Altitude
Unknown
Speed
Unknown
Apparent Right ascension
Unknown
Apparent Declination
Unknown
Sunlit
N/A
Visualization observer readout
Local Sidereal Time
14:52:02
Azimuth
Unknown
Elevation
Unknown
Doppler factor
Unknown
Orbital elements
Apogee altitude
1,295.056 km
Perigee altitude
935.568 km
Semi-major axis
7,493.449 km
Eccentricity
0.02399
Inclination
41.1846°
RAAN
324.8153°
Arg. of periapsis
87.1814°
True anomaly
272.89407°
Mean anomaly
275.6365°
Eccentric anomaly
274.26597°
Mean motion
3.34596 °/min
Orbital period
107.59 mins
BSTAR
-0.000065617
Loading maneuver chart data...
Computing Atmospheric mass density...
Loading historical data...
Loading historical data...
Loading historical data...
Loading historical data...
Loading historical data...
Loading historical data...
Loading historical data...
Other satellites on launch #32 in the year 1965 (1965-04-29 UTC)

Documentation

Showing up to 5 results
|